User: anonymous   Login
Location: Newark
(48.1500°N, 13.1167°E)
Time: 14:54:46
(UTC+00:00)
Language:

XW-2D - Orbit

View from above orbital plane
View from above orbital plane
View from above satellite
View from above satellite

Ground track
Ground track

The orbit data is extracted from the following two-line orbital elements,

1 40907U 15049J   21332.23222427  .00001749  00000-0  90199-4 0  9997
2 40907  97.4899 332.4889 0013224 342.1227  73.7293 15.17623936342438
Epoch (UTC): 28 November 2021 05:34:24
Eccentricity: 0.0013224
inclination: 97.4899°
perigee height: 504 km
apogee height: 522 km
right ascension of ascending node: 332.4889°
argument of perigee: 342.1227°
revolutions per day: 15.17623936
mean anomaly at epoch: 73.7293°
orbit number at epoch: 34243

The dashed part of the orbit path shows where the satellite is in the earth's shadow,  

DLR